Starlink 11108

operational
NORAD ID: 59712 Int'l Des: 2024-088 Owner: SPXS Country: US Constellation: starlink
LEOCIRCULAR

About Starlink 11108

Description loading...

Live Position

Loading 3D Globe...

Upcoming Passes

Altitude History

Altitude vs Time

uPlot chart will show altitude changes over time

Two-Line Element Set

1 59712U 24088E 25305.54410395 -.00000033 00000-0 45919-5 0 9992
2 59712 53.1601 238.1206 0001454 74.5043 285.6135 15.69709360 86146
Epoch: Nov 1, 2025 • Age: 25 hours

Current Status

Altitude 376.8 km
Velocity 7.68 km/s
Sub-Earth Point -47.31°S, 153.65°W
Launch Date May 10, 2024
Age 1.4 years
Type internet

Technical Details

Classification Payload
Mass 960.00 kg
Dry Mass 910.00 kg
Total Mass 960.00 kg
Length 0.30 m
Diameter 4.10 m
Span 29.00 m
Shape Box + pan
Manufacturer SPXS
Bus Type Starlink V2MD
Phase Status In Orbit
Owner/State SPXS/US

Large Constellations

Loading constellations...